| time (UTC) | temp F | wind direction | speed MPH | gust MPH | rain 1hr in | rain 24hr in | rain mn in | humidity % | barometer mb |
| 20260506084052 | 54 | 20 | 2.0 | 4.0 | 0.02 | 0.18 | 0.18 | 95 | 1007.2 |
| 20260506083452 | 55 | 19 | 2.0 | 5.0 | 0.02 | 0.18 | 0.18 | 95 | 1007.2 |
| 20260506082852 | 54 | 347 | 2.0 | 4.0 | 0.03 | 0.18 | 0.18 | 95 | 1007.1 |
| 20260506082251 | 54 | 333 | 2.0 | 5.0 | 0.04 | 0.18 | 0.18 | 95 | 1007.1 |
| 20260506081651 | 54 | 357 | 2.0 | 4.0 | 0.05 | 0.18 | 0.18 | 95 | 1007.1 |
| 20260506081050 | 54 | 105 | 1.0 | 2.0 | 0.06 | 0.17 | 0.17 | 95 | 1007.1 |
| 20260506080453 | 54 | 105 | 1.0 | 2.0 | 0.08 | 0.17 | 0.17 | 95 | 1007.1 |
| 20260506073448 | 53 | 105 | 2.0 | 4.0 | 0.12 | 0.16 | 0.16 | 95 | 1006.9 |
| 20260506072852 | 53 | 107 | 1.0 | 3.0 | 0.11 | 0.15 | 0.15 | 95 | 1006.9 |
| 20260506072248 | 53 | 107 | 1.0 | 3.0 | 0.10 | 0.14 | 0.14 | 95 | 1006.9 |
| 20260506071647 | 53 | 107 | 1.0 | 2.0 | 0.10 | 0.13 | 0.13 | 95 | 1006.9 |
| 20260506071047 | 52 | 107 | 1.0 | 3.0 | 0.10 | 0.11 | 0.11 | 95 | 1006.9 |
| 20260506070447 | 52 | 107 | 0.0 | 1.0 | 0.09 | 0.09 | 0.09 | 95 | 1006.9 |
| 20260506062245 | 51 | 97 | 1.0 | 3.0 | 0.04 | 0.04 | 0.04 | 95 | 1006.7 |
| 20260506061644 | 52 | 97 | 1.0 | 3.0 | 0.03 | 0.03 | 0.03 | 95 | 1006.6 |
| 20260506061043 | 51 | 105 | 1.0 | 3.0 | 0.01 | 0.01 | 0.01 | 94 | 1006.6 |
| 20260506060444 | 51 | 105 | 2.0 | 4.0 | 0.00 | 0.00 | 0.00 | 94 | 1006.6 |
| 20260506051040 | 50 | 124 | 1.0 | 1.0 | 0.00 | 0.00 | 0.00 | 94 | 1006.3 |
| 20260505232357 | 51 | 174 | 0.0 | 1.0 | 0.00 | 0.01 | 0.01 | 90 | 1007.8 |
| 20260505231756 | 52 | 174 | 0.0 | 0.0 | 0.00 | 0.01 | 0.01 | 89 | 1007.8 |
| 20260505231155 | 52 | 174 | 1.0 | 1.0 | 0.00 | 0.01 | 0.01 | 89 | 1007.9 |
| 20260505225955 | 52 | 174 | 1.0 | 3.0 | 0.00 | 0.01 | 0.01 | 89 | 1008.0 |
| 20260505225355 | 52 | 174 | 1.0 | 2.0 | 0.00 | 0.01 | 0.01 | 88 | 1008.0 |
| 20260505224755 | 52 | 199 | 1.0 | 5.0 | 0.00 | 0.01 | 0.01 | 88 | 1008.0 |
| 20260505222354 | 53 | 192 | 0.0 | 3.0 | 0.00 | 0.01 | 0.01 | 87 | 1008.2 |
| 20260505220652 | 53 | 207 | 0.0 | 1.0 | 0.00 | 0.01 | 0.01 | 87 | 1008.2 |
| 20260505220553 | 53 | 207 | 0.0 | 1.0 | 0.00 | 0.01 | 0.01 | 87 | 1008.2 |
| 20260505215352 | 53 | 197 | 0.0 | 1.0 | 0.00 | 0.01 | 0.01 | 86 | 1008.3 |
| 20260505214152 | 53 | 156 | 0.0 | 0.0 | 0.00 | 0.01 | 0.01 | 85 | 1008.4 |
| 20260505212350 | 54 | 204 | 1.0 | 3.0 | 0.00 | 0.01 | 0.01 | 84 | 1008.5 |
| 20260505205949 | 55 | 211 | 0.0 | 1.0 | 0.00 | 0.01 | 0.01 | 83 | 1008.8 |
| 20260505205348 | 55 | 211 | 0.0 | 2.0 | 0.00 | 0.01 | 0.01 | 83 | 1008.9 |
| 20260505204748 | 55 | 230 | 0.0 | 2.0 | 0.00 | 0.01 | 0.01 | 83 | 1008.8 |
| 20260505204148 | 55 | 224 | 0.0 | 4.0 | 0.00 | 0.01 | 0.01 | 83 | 1008.8 |
| 20260505203549 | 55 | 226 | 0.0 | 1.0 | 0.00 | 0.01 | 0.01 | 82 | 1008.8 |
| 20260505202347 | 56 | 205 | 1.0 | 3.0 | 0.00 | 0.01 | 0.01 | 81 | 1008.8 |
| 20260505201746 | 56 | 226 | 1.0 | 5.0 | 0.00 | 0.01 | 0.01 | 81 | 1008.7 |
| 20260505201148 | 56 | 237 | 1.0 | 4.0 | 0.00 | 0.01 | 0.01 | 81 | 1008.7 |
| 20260505200549 | 56 | 218 | 0.0 | 4.0 | 0.00 | 0.01 | 0.01 | 81 | 1008.6 |
| 20260505194745 | 57 | 224 | 1.0 | 4.0 | 0.00 | 0.01 | 0.01 | 79 | 1008.5 |
| 20260505194145 | 57 | 240 | 2.0 | 4.0 | 0.00 | 0.01 | 0.01 | 79 | 1008.4 |
| 20260505193546 | 57 | 236 | 3.0 | 9.0 | 0.00 | 0.01 | 0.01 | 78 | 1008.4 |
| 20260505175939 | 60 | 267 | 6.0 | 13.0 | 0.00 | 0.01 | 0.01 | 72 | 1008.0 |
| 20260505174139 | 61 | 255 | 9.0 | 13.0 | 0.00 | 0.01 | 0.01 | 70 | 1008.0 |
| 20260505170538 | 60 | 312 | 6.0 | 16.0 | 0.00 | 0.01 | 0.01 | 72 | 1008.2 |
| 20260505164734 | 60 | 299 | 4.0 | 10.0 | 0.00 | 0.01 | 0.01 | 75 | 1008.1 |
| 20260505162934 | 61 | 302 | 6.0 | 14.0 | 0.00 | 0.01 | 0.01 | 71 | 1008.2 |
| 20260505162333 | 61 | 254 | 6.0 | 12.0 | 0.00 | 0.01 | 0.01 | 69 | 1008.2 |
| 20260505152931 | 62 | 226 | 10.0 | 20.0 | 0.00 | 0.01 | 0.01 | 68 | 1008.2 |
| 20260505152330 | 63 | 283 | 9.0 | 16.0 | 0.00 | 0.01 | 0.01 | 68 | 1008.2 |
| 20260505140527 | 62 | 209 | 9.0 | 18.0 | 0.00 | 0.01 | 0.01 | 70 | 1008.2 |
| 20260505122920 | 59 | 249 | 0.0 | 0.0 | 0.01 | 0.01 | 0.01 | 84 | 1008.7 |
| 20260505122320 | 59 | 249 | 1.0 | 1.0 | 0.01 | 0.01 | 0.01 | 83 | 1008.6 |
| 20260505091710 | 62 | 280 | 6.0 | 11.0 | 0.00 | 0.00 | 0.00 | 74 | 1008.5 |
| 20260505090510 | 61 | 278 | 6.0 | 14.0 | 0.00 | 0.00 | 0.00 | 74 | 1008.4 |